Find STARLINK-36671

NORAD ID: 70600 Constellation: starlink operational
LEOCIRCULAR

实时位置

正在加载3D地球...

关于 STARLINK-36671

正在加载描述...

即将过境

Passes for default location (London). Set your location on the main map for personalized predictions.

高度历史

Loading altitude history...

两行轨道根数

1 70600C 26099S 26122.86715278 -.00000253 00000+0 -30302-6 0 1229
2 70600 53.1635 22.6790 0005825 288.0930 51.0112 16.07550691 15
Epoch: May 2, 2026 • Age: 31 hours